Regional Weather Roundup
Issued by NWS

Home | Current Version | Previous Version | Graphics & Text | Print | Product List | Glossary On
Versions: 1 2 3 4 5 6 7 8 9 10 11 12 13 14 15 16 17 18 19 20 21 22 23 24 25 26 27 28 29 30 31 32 33 34 35 36 37 38 39 40 41 42 43 44 45 46 47 48 49 50
000
ASUS44 KMEG 052210
RWRTN
TENNESSEE HOURLY STATE WEATHER ROUNDUP
NATIONAL WEATHER SERVICE MEMPHIS TN
400 PM CST FRI FEB 05 2016

TNZ002-004-019-021-049-052-054-088>092-052300-
WEST TENNESSEE

CITY           SKY/WX    TMP DP  RH WIND       PRES   REMARKS
MEMPHIS INTL   CLOUDY    51  20  29 CALM      30.40S
NWS MEMPHIS      N/A     52 N/A N/A MISG        N/A
JACKSON        CLOUDY    50  17  27 W6        30.39F
DYERSBURG      CLOUDY    52  23  32 W10       30.41S
UNION CITY     SUNNY     48  25  40 SW8       30.37S
PARIS          SUNNY     46  21  36 W7        30.38S
LEXINGTON      SUNNY     48  12  23 SW5       30.38S
$$

TNZ008-025-027-028-033-062-065-066-052300-
NORTH MIDDLE TENNESSEE

CITY           SKY/WX    TMP DP  RH WIND       PRES   REMARKS
NASHVILLE      CLOUDY    48  12  23 S5        30.40F
CLARKSVILLE    CLOUDY    48  17  29 W9        30.38S
SMYRNA         SUNNY     48  15  27 VRB3      30.41F
COOKEVILLE     SUNNY     45  16  31 NE3       30.37F
CROSSVILLE     SUNNY     43  10  26 NW5       30.36S
$$

TNZ061-075-076-078-094-096-097-052300-
SOUTH MIDDLE TENNESSEE

CITY           SKY/WX    TMP DP  RH WIND       PRES   REMARKS
FAYETTEVILLE   SUNNY     46  16  29 N6        30.38F
TULLAHOMA      SUNNY     45  10  24 NW3       30.39S
WINCHESTER     SUNNY     45  16  31 N6        30.39F
MCMINNVILLE    SUNNY     45  16  31 VRB5      30.39S
COLUMBIA       SUNNY     46  19  34 CALM      30.37F
SHELBYVILLE    SUNNY     46  18  31 NE3       30.41S
$$

TNZ017-018-042-046-047-052300-
NORTHEAST TENNESSEE

CITY           SKY/WX    TMP DP  RH WIND       PRES   REMARKS
TRI CITIES     CLOUDY    42  11  28 NE3       30.35S
$$

TNZ012-013-036-069-073-074-052300-
CENTRAL EAST TENNESSEE

CITY           SKY/WX    TMP DP  RH WIND       PRES   REMARKS
KNOXVILLE      PTSUNNY   43  15  32 E7        30.39R
OAK RIDGE      SUNNY     45  12  26 CALM      30.40R
GATLINBURG       N/A     39  12  33 N6        30.38R WCI  35
MORRISTOWN     CLEAR     43  14  31 CALM      30.36S
$$

TNZ083-085-099-052300-
SOUTHEAST TENNESSEE

CITY           SKY/WX    TMP DP  RH WIND       PRES   REMARKS
CHATTANOOGA    MOSUNNY   47  13  25 NE5       30.39F
$$

SKY/WX REPORTED AS FAIR MEANS FEW OR NO CLOUDS BELOW
12 THOUSAND FEET.




USA.gov is the U.S. government's official web portal to all federal, state and local government web resources and services.